Weather History for Hammond, LA

Change the Weather History Date:

Wednesday, April 2, 2014

  Actual Average (KMSY) Record (KMSY)
Temperature  
Mean Temperature 72 °F -  
Max Temperature 82 °F 76 °F 85 °F (1974)
Min Temperature 62 °F 56 °F 39 °F (1961)
Cooling Degree Days 7    
Growing Degree Days 22 (Base 50)    
Moisture  
Dew Point 63 °F    
Average Humidity 78    
Maximum Humidity 94    
Minimum Humidity 54    
Precipitation  
Precipitation 0.00 in - - ()
Sea Level Pressure  
Sea Level Pressure 30.05 in    
Wind  
Wind Speed 7 mph (SE)    
Max Wind Speed 16 mph    
Max Gust Speed 22 mph    
Visibility 9 miles    
Events      
Averages and records for this station are not official NWS values.
T = Trace of Precipitation, MM = Missing Value Source: NWS Daily Summary

Daily Weather History Graph

Daily Weather History Graph

Search for Another Location

Airport:

Trip Planner

Search our weather history database for the weather conditions in past years. The results will help you decide how hot, cold, wet, or windy it might be!

Date:

Astronomy

Apr. 02, 2014 Rise Set
Actual Time 6:49 AM CDT 7:21 PM CDT
Civil Twilight 6:25 AM CDT 7:45 PM CDT
Nautical Twilight 5:56 AM CDT 8:13 PM CDT
Astronomical Twilight 5:28 AM CDT 8:42 PM CDT
Moon 8:45 AM CDT (4/2) 10:31 PM CDT (4/2)
Length of Visible Light 13h 20m
Length of Day
12h 31m
Waxing Crescent, 10% of the Moon is Illuminated
Apr 2
Waxing Crescent
Apr 7
First Quarter
Apr 15
Full
Apr 22
Last Quarter
Apr 29
New

Hourly Weather History & Observations

Time (CDT) Temp. Heat Index Dew Point Humidity Pressure Visibility Wind Dir Wind Speed Gust Speed Precip Events Conditions
12:15 AM 62.6 °F - 60.8 °F 94% 30.08 in 7.0 mi SE 3.5 mph - N/A   Clear
12:35 AM 62.6 °F - 59.0 °F 88% 30.08 in 7.0 mi SE 3.5 mph - N/A   Clear
12:55 AM 62.6 °F - 60.8 °F 94% 30.08 in 10.0 mi ESE 3.5 mph - N/A   Clear
1:15 AM 62.6 °F - 60.8 °F 94% 30.07 in 7.0 mi ESE 4.6 mph - N/A   Clear
1:35 AM 62.6 °F - 60.8 °F 94% 30.07 in 7.0 mi ESE 4.6 mph - N/A   Clear
1:55 AM 62.6 °F - 60.8 °F 94% 30.06 in 7.0 mi SE 3.5 mph - N/A   Clear
2:15 AM 62.6 °F - 60.8 °F 94% 30.06 in 7.0 mi ESE 4.6 mph - N/A   Clear
2:35 AM 62.6 °F - 60.8 °F 94% 30.05 in 7.0 mi SE 4.6 mph - N/A   Scattered Clouds
2:55 AM 62.6 °F - 60.8 °F 94% 30.05 in 7.0 mi ESE 5.8 mph - N/A   Scattered Clouds
3:15 AM 62.6 °F - 60.8 °F 94% 30.04 in 7.0 mi ESE 5.8 mph - N/A   Scattered Clouds
3:35 AM 64.4 °F - 60.8 °F 88% 30.04 in 7.0 mi ESE 4.6 mph - N/A   Scattered Clouds
3:55 AM 64.4 °F - 60.8 °F 88% 30.04 in 7.0 mi SE 3.5 mph - N/A   Mostly Cloudy
4:15 AM 64.4 °F - 62.6 °F 94% 30.04 in 7.0 mi ESE 4.6 mph - N/A   Overcast
4:35 AM 64.4 °F - 62.6 °F 94% 30.04 in 5.0 mi SE 4.6 mph - N/A   Overcast
4:55 AM 64.4 °F - 62.6 °F 94% 30.05 in 5.0 mi SSE 4.6 mph - N/A   Overcast
5:15 AM 66.2 °F - 62.6 °F 88% 30.04 in 5.0 mi SE 6.9 mph - N/A   Overcast
5:35 AM 66.2 °F - 62.6 °F 88% 30.05 in 7.0 mi SE 5.8 mph - N/A   Overcast
5:55 AM 66.2 °F - 62.6 °F 88% 30.06 in 7.0 mi SSE 3.5 mph - N/A   Overcast
6:15 AM 66.2 °F - 62.6 °F 88% 30.06 in 7.0 mi SE 3.5 mph - N/A   Overcast
7:35 AM 66.2 °F - 64.4 °F 94% 30.08 in 7.0 mi ESE 3.5 mph - N/A   Overcast
7:55 AM 68.0 °F - 64.4 °F 88% 30.08 in 7.0 mi ESE 5.8 mph - N/A   Overcast
8:15 AM 68.0 °F - 64.4 °F 88% 30.09 in 7.0 mi SE 6.9 mph - N/A   Overcast
8:35 AM 68.0 °F - 64.4 °F 88% 30.09 in 7.0 mi SE 5.8 mph - N/A   Overcast
8:55 AM 68.0 °F - 64.4 °F 88% 30.09 in 7.0 mi SE 5.8 mph - N/A   Overcast
9:15 AM 69.8 °F - 64.4 °F 83% 30.10 in 7.0 mi SSE 5.8 mph - N/A   Overcast
9:35 AM 69.8 °F - 64.4 °F 83% 30.10 in 7.0 mi SE 8.1 mph - N/A   Overcast
9:55 AM 69.8 °F - 64.4 °F 83% 30.10 in 10.0 mi SE 5.8 mph - N/A   Overcast
10:15 AM 71.6 °F - 64.4 °F 78% 30.10 in 10.0 mi SSE 8.1 mph - N/A   Overcast
10:35 AM 71.6 °F - 64.4 °F 78% 30.10 in 10.0 mi SSE 10.4 mph - N/A   Overcast
10:55 AM 73.4 °F - 64.4 °F 73% 30.10 in 10.0 mi SE 6.9 mph - N/A   Overcast
11:35 AM 77.0 °F - 66.2 °F 69% 30.09 in 10.0 mi SE 8.1 mph - N/A   Overcast
11:55 AM 77.0 °F - 66.2 °F 69% 30.09 in 10.0 mi SE 9.2 mph - N/A   Overcast
12:15 PM 77.0 °F - 66.2 °F 69% 30.09 in 10.0 mi SE 9.2 mph - N/A   Overcast
12:55 PM 80.6 °F 82.7 °F 66.2 °F 61% 30.09 in 10.0 mi SE 6.9 mph - N/A   Mostly Cloudy
1:15 PM 82.4 °F 83.9 °F 64.4 °F 54% 30.08 in 10.0 mi SE 11.5 mph - N/A   Scattered Clouds
1:35 PM 80.6 °F 82.3 °F 64.4 °F 58% 30.07 in 10.0 mi SSE 10.4 mph 16.1 mph N/A   Scattered Clouds
1:55 PM 80.6 °F 82.3 °F 64.4 °F 58% 30.06 in 10.0 mi SE 12.7 mph 18.4 mph N/A   Mostly Cloudy
2:15 PM 82.4 °F 83.9 °F 64.4 °F 54% 30.05 in 10.0 mi South 10.4 mph 16.1 mph N/A   Mostly Cloudy
2:35 PM 80.6 °F 82.3 °F 64.4 °F 58% 30.05 in 10.0 mi SSE 11.5 mph - N/A   Mostly Cloudy
2:55 PM 82.4 °F 83.9 °F 64.4 °F 54% 30.04 in 10.0 mi SSE 12.7 mph - N/A   Mostly Cloudy
3:15 PM 80.6 °F 82.3 °F 64.4 °F 58% 30.04 in 10.0 mi South 15.0 mph - N/A   Scattered Clouds
3:35 PM 80.6 °F 81.8 °F 62.6 °F 54% 30.03 in 10.0 mi SSE 16.1 mph 20.7 mph N/A   Clear
3:55 PM 80.6 °F 81.8 °F 62.6 °F 54% 30.03 in 10.0 mi SE 12.7 mph 16.1 mph N/A   Clear
4:15 PM 80.6 °F 81.8 °F 62.6 °F 54% 30.03 in 10.0 mi SSE 15.0 mph - N/A   Clear
4:35 PM 80.6 °F 81.8 °F 62.6 °F 54% 30.02 in 10.0 mi SSE 15.0 mph 21.9 mph N/A   Scattered Clouds
5:15 PM 80.6 °F 81.8 °F 62.6 °F 54% 30.02 in 10.0 mi SSE 12.7 mph - N/A   Scattered Clouds
5:35 PM 80.6 °F 81.8 °F 62.6 °F 54% 30.02 in 10.0 mi SE 10.4 mph 19.6 mph N/A   Scattered Clouds
5:55 PM 78.8 °F - 62.6 °F 57% 30.02 in 10.0 mi SE 12.7 mph - N/A   Clear
6:15 PM 77.0 °F - 62.6 °F 61% 30.02 in 10.0 mi SE 15.0 mph 19.6 mph N/A   Clear
6:35 PM 75.2 °F - 64.4 °F 69% 30.02 in - SE 12.7 mph - N/A   Unknown
6:55 PM 73.4 °F - 64.4 °F 73% 30.02 in 10.0 mi SE 11.5 mph - N/A   Clear
7:15 PM 73.4 °F - 64.4 °F 73% 30.02 in 10.0 mi SE 12.7 mph - N/A   Clear
7:35 PM 71.6 °F - 64.4 °F 78% 30.02 in 10.0 mi SE 16.1 mph 20.7 mph N/A   Clear
7:55 PM 71.6 °F - 64.4 °F 78% 30.02 in 10.0 mi SE 12.7 mph - N/A   Clear
8:15 PM 69.8 °F - 64.4 °F 83% 30.02 in 10.0 mi SE 12.7 mph 17.3 mph N/A   Clear
8:35 PM 69.8 °F - 64.4 °F 83% 30.03 in 10.0 mi SE 11.5 mph 19.6 mph N/A   Clear
8:55 PM 69.8 °F - 64.4 °F 83% 30.03 in 10.0 mi SE 9.2 mph - N/A   Scattered Clouds
9:15 PM 69.8 °F - 64.4 °F 83% 30.04 in 10.0 mi SE 9.2 mph 17.3 mph N/A   Scattered Clouds
9:35 PM 69.8 °F - 64.4 °F 83% 30.04 in 10.0 mi SE 10.4 mph - N/A   Mostly Cloudy
9:55 PM 69.8 °F - 64.4 °F 83% 30.04 in 10.0 mi SE 12.7 mph 19.6 mph N/A   Overcast
10:15 PM 69.8 °F - 64.4 °F 83% 30.04 in 10.0 mi SE 10.4 mph - N/A   Overcast
10:35 PM 69.8 °F - 64.4 °F 83% 30.04 in 10.0 mi SE 11.5 mph 17.3 mph N/A   Overcast
10:55 PM 69.8 °F - 64.4 °F 83% 30.05 in 10.0 mi SE 11.5 mph - N/A   Overcast
11:15 PM 69.8 °F - 64.4 °F 83% 30.05 in 10.0 mi SE 10.4 mph - N/A   Overcast
11:35 PM 69.8 °F - 64.4 °F 83% 30.04 in 10.0 mi SE 10.4 mph - N/A   Overcast